TimeCDT,TemperatureF,Dew PointF,Humidity,Sea Level PressureIn,VisibilityMPH,Wind Direction,Wind SpeedMPH,Gust SpeedMPH,PrecipitationIn,Events,Conditions,WindDirDegrees,DateUTC
12:15 AM,60.8,37.4,42,29.73,10.0,ESE,9.2,-,N/A,,Scattered Clouds,110,2012-10-04 05:15:00
12:35 AM,60.8,37.4,42,29.71,10.0,East,10.4,-,N/A,,Clear,90,2012-10-04 05:35:00
12:55 AM,60.8,35.6,39,29.71,10.0,ESE,9.2,-,N/A,,Clear,110,2012-10-04 05:55:00
1:15 AM,59.0,35.6,42,29.70,10.0,ESE,11.5,-,N/A,,Scattered Clouds,110,2012-10-04 06:15:00
1:35 AM,59.0,35.6,42,29.70,10.0,ESE,11.5,-,N/A,,Clear,120,2012-10-04 06:35:00
1:55 AM,60.8,35.6,39,29.68,10.0,SE,10.4,-,N/A,,Clear,130,2012-10-04 06:55:00
2:15 AM,59.0,35.6,42,29.68,10.0,SSE,11.5,17.3,N/A,,Clear,150,2012-10-04 07:15:00
2:35 AM,57.2,33.8,41,29.67,10.0,South,17.3,26.5,N/A,,Clear,180,2012-10-04 07:35:00
2:55 AM,53.6,35.6,51,29.68,7.0,SSW,19.6,24.2,N/A,,Clear,200,2012-10-04 07:55:00
3:15 AM,50.0,37.4,62,29.67,7.0,South,15.0,23.0,N/A,,Clear,190,2012-10-04 08:15:00
3:35 AM,46.4,39.2,76,29.68,10.0,SW,16.1,23.0,N/A,,Clear,230,2012-10-04 08:35:00
3:55 AM,44.6,39.2,81,29.70,10.0,SW,21.9,25.3,N/A,,Clear,230,2012-10-04 08:55:00
4:15 AM,44.6,37.4,76,29.71,10.0,WSW,20.7,31.1,N/A,,Mostly Cloudy,240,2012-10-04 09:15:00
4:35 AM,44.6,37.4,76,29.72,10.0,WSW,28.8,36.8,N/A,,Overcast,250,2012-10-04 09:35:00
4:55 AM,44.6,37.4,76,29.73,10.0,West,29.9,40.3,N/A,,Overcast,260,2012-10-04 09:55:00
5:15 AM,42.8,37.4,81,29.75,10.0,West,31.1,39.1,N/A,,Overcast,260,2012-10-04 10:15:00
5:35 AM,42.8,37.4,81,29.77,10.0,West,28.8,39.1,N/A,,Overcast,260,2012-10-04 10:35:00
5:55 AM,41.0,37.4,87,29.78,10.0,West,31.1,43.7,N/A,,Overcast,270,2012-10-04 10:55:00
6:15 AM,41.0,37.4,87,29.80,7.0,West,28.8,39.1,N/A,,Overcast,270,2012-10-04 11:15:00
6:55 AM,37.4,33.8,87,29.82,10.0,West,20.7,36.8,N/A,,Overcast,270,2012-10-04 11:55:00
7:15 AM,35.6,32.0,87,29.84,10.0,West,28.8,38.0,N/A,,Overcast,270,2012-10-04 12:15:00
7:35 AM,35.6,32.0,87,29.85,10.0,West,23.0,40.3,N/A,,Overcast,280,2012-10-04 12:35:00
7:55 AM,35.6,32.0,87,29.86,10.0,West,20.7,36.8,N/A,,Overcast,270,2012-10-04 12:55:00
8:15 AM,35.6,32.0,87,29.87,10.0,West,20.7,27.6,N/A,,Overcast,270,2012-10-04 13:15:00
8:55 AM,37.4,32.0,81,29.90,10.0,West,24.2,34.5,N/A,,Overcast,270,2012-10-04 13:55:00
9:15 AM,35.6,32.0,87,29.91,4.0,West,26.5,36.8,N/A,,Overcast,270,2012-10-04 14:15:00
9:35 AM,35.6,32.0,87,29.92,10.0,West,32.2,40.3,N/A,,Overcast,270,2012-10-04 14:35:00
9:55 AM,35.6,32.0,87,29.94,10.0,West,25.3,35.7,N/A,,Overcast,280,2012-10-04 14:55:00
10:15 AM,37.4,32.0,81,29.95,10.0,West,29.9,40.3,N/A,,Overcast,280,2012-10-04 15:15:00
10:35 AM,37.4,30.2,75,29.96,10.0,WNW,25.3,32.2,N/A,,Overcast,290,2012-10-04 15:35:00
10:55 AM,37.4,30.2,75,29.97,10.0,West,25.3,34.5,N/A,,Overcast,280,2012-10-04 15:55:00
11:35 AM,39.2,30.2,70,29.97,7.0,WNW,26.5,36.8,N/A,,Overcast,290,2012-10-04 16:35:00
11:55 AM,41.0,30.2,65,29.99,10.0,WNW,23.0,38.0,N/A,,Overcast,290,2012-10-04 16:55:00
12:15 PM,41.0,30.2,65,30.00,7.0,WNW,32.2,43.7,N/A,,Overcast,290,2012-10-04 17:15:00
12:55 PM,39.2,32.0,75,30.03,10.0,WNW,21.9,35.7,N/A,,Overcast,290,2012-10-04 17:55:00
1:15 PM,41.0,32.0,70,30.03,10.0,West,23.0,34.5,N/A,,Overcast,280,2012-10-04 18:15:00
1:35 PM,39.2,32.0,75,30.04,7.0,West,24.2,36.8,N/A,,Overcast,280,2012-10-04 18:35:00
1:55 PM,41.0,32.0,70,30.04,10.0,West,24.2,39.1,N/A,,Overcast,280,2012-10-04 18:55:00
2:35 PM,41.0,30.2,65,30.06,10.0,West,20.7,35.7,N/A,,Overcast,280,2012-10-04 19:35:00
2:55 PM,41.0,32.0,70,30.07,10.0,West,20.7,32.2,N/A,,Overcast,280,2012-10-04 19:55:00
3:15 PM,41.0,32.0,70,30.06,10.0,West,25.3,36.8,N/A,,Overcast,280,2012-10-04 20:15:00
3:35 PM,41.0,32.0,70,30.08,10.0,WNW,26.5,38.0,N/A,,Overcast,290,2012-10-04 20:35:00
3:55 PM,41.0,30.2,65,30.08,10.0,West,19.6,31.1,N/A,,Overcast,280,2012-10-04 20:55:00
4:15 PM,41.0,32.0,70,30.09,10.0,West,23.0,33.4,N/A,,Overcast,280,2012-10-04 21:15:00
4:35 PM,41.0,32.0,70,30.09,10.0,West,19.6,38.0,N/A,,Overcast,280,2012-10-04 21:35:00
4:55 PM,41.0,32.0,70,30.10,10.0,West,21.9,34.5,N/A,,Overcast,280,2012-10-04 21:55:00
5:35 PM,39.2,32.0,75,30.11,10.0,WNW,18.4,29.9,N/A,,Overcast,290,2012-10-04 22:35:00
5:55 PM,37.4,32.0,81,30.11,7.0,WNW,16.1,27.6,N/A,,Drizzle,290,2012-10-04 22:55:00
6:15 PM,37.4,32.0,81,30.11,10.0,West,18.4,26.5,N/A,,Overcast,280,2012-10-04 23:15:00
6:35 PM,37.4,32.0,81,30.11,10.0,WNW,20.7,32.2,N/A,,Light Drizzle,290,2012-10-04 23:35:00
6:55 PM,37.4,32.0,81,30.12,10.0,WNW,17.3,24.2,N/A,,Overcast,290,2012-10-04 23:55:00
7:15 PM,37.4,32.0,81,30.12,10.0,WNW,17.3,23.0,N/A,,Overcast,290,2012-10-05 00:15:00
7:35 PM,37.4,30.2,75,30.12,10.0,West,15.0,21.9,N/A,,Scattered Clouds,280,2012-10-05 00:35:00
7:55 PM,37.4,30.2,75,30.12,10.0,West,15.0,23.0,N/A,,Scattered Clouds,280,2012-10-05 00:55:00
8:15 PM,37.4,30.2,75,30.12,10.0,WNW,16.1,23.0,N/A,,Mostly Cloudy,290,2012-10-05 01:15:00
8:35 PM,37.4,30.2,75,30.13,10.0,West,15.0,19.6,N/A,,Overcast,280,2012-10-05 01:35:00
8:55 PM,37.4,32.0,81,30.13,10.0,WNW,21.9,29.9,N/A,,Mostly Cloudy,290,2012-10-05 01:55:00
9:15 PM,37.4,30.2,75,30.14,10.0,WNW,16.1,26.5,N/A,,Mostly Cloudy,290,2012-10-05 02:15:00
9:35 PM,37.4,30.2,75,30.14,10.0,WNW,19.6,28.8,N/A,,Overcast,290,2012-10-05 02:35:00
9:55 PM,37.4,28.4,70,30.14,10.0,WNW,18.4,27.6,N/A,,Overcast,290,2012-10-05 02:55:00
10:15 PM,37.4,30.2,75,30.14,10.0,WNW,11.5,27.6,N/A,,Overcast,290,2012-10-05 03:15:00
10:55 PM,37.4,30.2,75,30.14,10.0,WNW,15.0,27.6,N/A,,Overcast,290,2012-10-05 03:55:00
11:15 PM,35.6,32.0,87,30.14,10.0,West,17.3,25.3,N/A,,Overcast,280,2012-10-05 04:15:00
11:35 PM,37.4,28.4,70,30.14,10.0,WNW,19.6,32.2,N/A,,Overcast,290,2012-10-05 04:35:00
11:55 PM,37.4,28.4,70,30.14,10.0,WNW,16.1,26.5,N/A,,Overcast,290,2012-10-05 04:55:00